TimeEST,TemperatureF,Dew PointF,Humidity,Sea Level PressureIn,VisibilityMPH,Wind Direction,Wind SpeedMPH,Gust SpeedMPH,PrecipitationIn,Events,Conditions,WindDirDegrees,DateUTC
12:54 AM,30.9,15.1,52,30.31,10.0,NW,9.2,-,N/A,,Clear,320,2012-02-21 05:54:00
1:54 AM,30.9,16.0,54,30.32,10.0,NW,9.2,-,N/A,,Clear,320,2012-02-21 06:54:00
2:54 AM,30.0,15.1,54,30.32,10.0,NW,6.9,-,N/A,,Clear,310,2012-02-21 07:54:00
3:54 AM,28.9,16.0,58,30.33,10.0,NW,6.9,-,N/A,,Clear,310,2012-02-21 08:54:00
4:54 AM,28.9,16.0,58,30.34,10.0,WNW,6.9,-,N/A,,Clear,300,2012-02-21 09:54:00
5:54 AM,28.0,16.0,61,30.33,10.0,NW,4.6,-,N/A,,Clear,320,2012-02-21 10:54:00
6:54 AM,28.9,16.0,58,30.34,10.0,WNW,5.8,-,N/A,,Clear,300,2012-02-21 11:54:00
7:54 AM,30.9,17.1,57,30.35,10.0,NW,3.5,-,N/A,,Clear,310,2012-02-21 12:54:00
8:54 AM,33.1,17.1,52,30.33,10.0,Calm,Calm,-,N/A,,Clear,0,2012-02-21 13:54:00
9:54 AM,33.1,19.0,56,30.31,10.0,SSE,4.6,-,N/A,,Clear,150,2012-02-21 14:54:00
10:54 AM,36.0,18.0,48,30.30,10.0,SE,5.8,-,N/A,,Scattered Clouds,130,2012-02-21 15:54:00
11:54 AM,39.9,18.0,41,30.27,10.0,SSE,11.5,-,N/A,,Scattered Clouds,160,2012-02-21 16:54:00
12:54 PM,42.1,16.0,35,30.21,10.0,SSW,9.2,-,N/A,,Mostly Cloudy,200,2012-02-21 17:54:00
1:54 PM,42.1,16.0,35,30.18,10.0,South,13.8,-,N/A,,Mostly Cloudy,190,2012-02-21 18:54:00
2:54 PM,42.1,18.0,38,30.14,10.0,SSW,12.7,-,N/A,,Mostly Cloudy,200,2012-02-21 19:54:00
3:54 PM,41.0,19.9,43,30.11,10.0,SSW,17.3,-,N/A,,Mostly Cloudy,200,2012-02-21 20:54:00
4:54 PM,39.0,21.9,50,30.08,10.0,South,16.1,24.2,N/A,,Mostly Cloudy,190,2012-02-21 21:54:00
5:54 PM,37.9,24.1,57,30.05,10.0,South,16.1,21.9,N/A,,Mostly Cloudy,190,2012-02-21 22:54:00
6:54 PM,37.0,26.1,65,30.03,10.0,SSW,11.5,-,N/A,,Scattered Clouds,200,2012-02-21 23:54:00
7:54 PM,37.9,27.0,65,30.02,10.0,SSW,10.4,-,N/A,,Overcast,200,2012-02-22 00:54:00
8:04 PM,37.4,28.4,70,30.02,10.0,SSW,11.5,-,N/A,,Overcast,200,2012-02-22 01:04:00
8:54 PM,39.0,30.0,70,29.98,10.0,South,12.7,-,N/A,,Overcast,180,2012-02-22 01:54:00
9:54 PM,39.0,34.0,82,29.95,10.0,South,8.1,-,0.00,Rain,Light Rain,190,2012-02-22 02:54:00
10:54 PM,39.0,36.0,89,29.90,10.0,South,13.8,-,0.00,,Overcast,180,2012-02-22 03:54:00
11:31 PM,39.2,35.6,87,29.88,10.0,SSW,3.5,-,N/A,,Overcast,200,2012-02-22 04:31:00
11:54 PM,39.9,36.0,86,29.87,10.0,SSW,5.8,-,N/A,,Overcast,200,2012-02-22 04:54:00